Regional Weather Roundup
Issued by NWS

Home | Current Version | Previous Version | Text Only | Print | Product List | Glossary Off
Versions: 1 2 3 4 5 6 7 8 9 10 11 12 13 14 15 16 17 18 19 20 21 22 23 24 25 26 27 28 29 30 31 32 33 34 35 36 37 38 39 40 41 42 43 44 45 46 47 48 49 50

000
ASUS43 KDMX 260607
RWRIA

WEATHER ROUNDUP FOR IOWA
NATIONAL WEATHER SERVICE DES MOINES IA
100 AM CDT SAT JUL 26 2014

NOTE: "FAIR" INDICATES FEW OR NO CLOUDS BELOW 12,000 FEET WITH NO
SIGNIFICANT WEATHER AND/OR OBSTRUCTIONS TO VISIBILITY.

* - THESE STATIONS ARE NOT NWS STATIONS...THUS NOT UNDER NWS
QUALITY CONTROL.  THEY ALSO DO NOT REPORT WEATHER SUCH
AS PRECIPITATION OR FOG.

IAZ001>003-012>014-020>022-031>034-043>046-260700-
   NORTHWEST IOWA

CITY           SKY/WX    TMP DP  RH WIND       PRES   REMARKS
CARROLL *      CLOUDY    72  70  94 CALM      29.83R
CHEROKEE *     CLEAR     72  71  98 CALM      29.83F
DENISON *      CLOUDY    73  73 100 CALM      29.81S
LE MARS *      CLEAR     70  70 100 CALM      29.84R
ORANGE CITY *  CLEAR     73  70  88 CALM      29.84S
SHELDON *      CLEAR     68  68 100 CALM      29.83S FOG
SIOUX CITY     PTCLDY    73  70  90 CALM      29.83R
6HR MIN TEMP:  73; 6HR MAX TEMP:  86;

SPENCER        PTCLDY    71  68  90 CALM      29.84S
6HR MIN TEMP:  71; 6HR MAX TEMP:  78;

STORM LAKE *   MOCLDY    72  72 100 E5        29.85F
$$

IAZ055>058-069>071-079>083-090>094-260700-
   SOUTHWEST IOWA

CITY           SKY/WX    TMP DP  RH WIND       PRES   REMARKS
ATLANTIC *     CLOUDY    72  70  94 N6        29.80S
AUDUBON *      CLEAR     73  70  88 CALM      29.83S
CLARINDA *     CLEAR     73  72  94 N5        29.79S
COUNCIL BLFS *   N/A     73  73 100 N10       29.80R
CRESTON *      CLEAR     70  70 100 NE5       29.80S
HARLAN  *      CLEAR     72  72 100 N6        29.85R
LAMONI         CLEAR     76  73  91 S9        29.78S
6HR MIN TEMP:  75; 6HR MAX TEMP:  81;

RED OAK *      CLEAR     73  72  94 CALM      29.79S
SHENANDOAH *   CLEAR     73  73 100 CALM      29.78F
$$

IAZ047>049-059>061-072>074-084-260700-
   CENTRAL IOWA

CITY           SKY/WX    TMP DP  RH WIND       PRES   REMARKS
AMES           CLOUDY    72  70  93 E5        29.81S
6HR MIN TEMP:  72; 6HR MAX TEMP:  78;

ANKENY *       PTCLDY    72  70  94 NE3       29.80S
CHARITON *     PTCLDY    72  70  94 SE6       29.78F
DES MOINES     PTCLDY    74  70  87 NE6       29.79S
6HR MIN TEMP:  74; 6HR MAX TEMP:  82;

GRINNELL*      PTCLDY    70  66  88 E6        29.82S
KNOXVILLE *    CLEAR     70  68  94 E5        29.78S
MARSHALLTOWN   CLOUDY    72  69  90 SE7       29.82S
6HR MIN TEMP:  72; 6HR MAX TEMP:  77;

PELLA *        CLEAR     71  69  94 E5        29.80S
PERRY *        MOCLDY    73  72  94 CALM      29.81S
$$

IAZ004>006-015-016-023>025-035-036-260700-
   NORTH CENTRAL IOWA

CITY           SKY/WX    TMP DP  RH WIND       PRES   REMARKS
ALGONA *       CLOUDY    72  70  94 CALM      29.84F
CLARION *      CLOUDY    72  72 100 CALM      29.84S
ESTHERVILLE    PTCLDY    70  69  97 S3        29.84S FOG
6HR MIN TEMP:  70; 6HR MAX TEMP:  77;

FORT DODGE *   CLOUDY    72  70  94 CALM      29.85S
MASON CITY     CLOUDY    72  70  93 SE6       29.86S
6HR MIN TEMP:  72; 6HR MAX TEMP:  77;

FOREST CITY *  CLOUDY    72  70  94 CALM      29.84F
IOWA FALLS *   MOCLDY    72  68  88 E5        29.85S
$$

IAZ007>011-017>019-026>030-037>042-050>054-066-260700-
   NORTHEAST IOWA

CITY           SKY/WX    TMP DP  RH WIND       PRES   REMARKS
CEDAR RAPIDS   CLOUDY    70  62  76 SE9       29.83F
6HR MIN TEMP:  70; 6HR MAX TEMP:  73;

CHARLES CITY * CLOUDY    70  68  94 SE3       29.86S FOG
CLINTON *      PTCLDY    66  61  82 SE8       29.90S
DECORAH *      CLOUDY    66  66 100 SE5       29.86F FOG
DUBUQUE        CLOUDY    65  63  93 S9        29.88F
6HR MIN TEMP:  65; 6HR MAX TEMP:  68;

MONTICELLO *   CLOUDY    68  64  88 SE8       29.85F
OELWEIN *      CLOUDY    68  64  88 SE6       29.87S
WATERLOO       CLOUDY    71  66  84 E6        29.84S
6HR MIN TEMP:  71; 6HR MAX TEMP:  76;

$$

IAZ064-065-067-068-078-260700-
   EAST CENTRAL IOWA

CITY           SKY/WX    TMP DP  RH WIND       PRES   REMARKS
DAVENPORT      MOCLDY    68  61  78 SE14      29.86F
6HR MIN TEMP:  68; 6HR MAX TEMP:  72;

IOWA CITY      MOCLDY    69  63  81 SE8       29.84F
6HR MIN TEMP:  69; 6HR MAX TEMP:  74;

MT. PLEASANT * PTCLDY    69  60  73 SE8       29.83F
MUSCATINE *    MOCLDY    70  63  78 SE9G16    29.83F
QUAD CITIES    CLOUDY    68  62  81 SE8       29.85F
6HR MIN TEMP:  68; 6HR MAX TEMP:  72;

$$

IAZ062-063-075>077-085>089-095>099-260700-
   SOUTHEAST IOWA

CITY           SKY/WX    TMP DP  RH WIND       PRES   REMARKS
BURLINGTON     PTCLDY    70  62  76 S9        29.84F
6HR MIN TEMP:  70; 6HR MAX TEMP:  75;

FAIRFIELD *    CLOUDY    70  64  83 SE8       29.81F
FORT MADISON * CLEAR     72  64  78 SE8       29.84F
KEOKUK *       MOCLDY    70  64  83 SE8       29.83S
OSKALOOSA *      N/A     69  67  92 SE7       29.80F
CENTERVILLE *  CLEAR     72  72 100 S6        29.81F
OTTUMWA        CLEAR     70  67  90 SE8       29.79F
6HR MIN TEMP:  70; 6HR MAX TEMP:  77;

WASHINGTON *   CLEAR     68  63  83 SE8       29.82F
$$

ABBREVIATIONS USED IN REMARKS
   TC - TEMPERATURES IN CELSIUS
  WCI - WIND CHILL INDEX
   HX - HEAT INDEX
  VSB - VISIBILITY
$$



USA.gov is the U.S. government's official web portal to all federal, state and local government web resources and services.